Powrót do katalogu

STARLINK-30432

AktywnyŁącznośćVLEO
NORAD 57864·PAYLOAD·🇺🇸 United States

Wystrzelony Sep 16, 2023 z Cape Canaveral Space Force Station

Loading…

Następne Przeloty (najbliższe 24 godziny)

TLE

ŚwieżeSource: CelesTrak SupGP

Epoka: Sep 14, 2026, 20:41 UTC

1 57864C 23144A   26257.86229167 -.00024195  00000+0 -87636-3 0  2579
2 57864  43.0010 296.7153 0001560 267.9475 344.4418 15.27589155    12

Śledź STARLINK-30432 w czasie rzeczywistym z AllMySat

Download on the App Store